Regional Weather Roundup
Issued by NWS

Home | Current Version | Previous Version | Graphics & Text | Print | Product List | Glossary On
Versions: 1 2 3 4 5 6 7 8 9 10 11 12 13 14 15 16 17 18 19 20 21 22 23 24 25 26 27 28 29 30 31 32 33 34 35 36 37 38 39 40 41 42 43 44 45 46 47 48 49 50
000
ASUS45 KCYS 272110
RWRWY

WYOMING REGIONAL WEATHER ROUNDUP
NATIONAL WEATHER SERVICE CHEYENNE WY
200 PM MST THU NOV 27 2014

NOTE:  "FAIR" INDICATES FEW OR NO CLOUDS BELOW 12,000 FEET
WITH NO SIGNIFICANT WEATHER AND/OR OBSTRUCTIONS TO VISIBILITY.

WYZ001-272200-
YELLOWSTONE NATIONAL PARK

CITY           SKY/WX    TMP DP  RH WIND       PRES   REMARKS
LK YELLOWSTONE   N/A     41  26  55 W5G16     30.18F
W YELLOWSTONE  NOT AVBL

$$
WYZ002>013-054>058-071-098>099-272200-
NORTHERN WYOMING

CITY           SKY/WX    TMP DP  RH WIND       PRES   REMARKS
JACKSON        MOSUNNY   45  28  53 S14G20    30.19R
CODY           MOSUNNY   57  27  30 SW17G32   29.95S
GREYBULL       PTSUNNY   32  27  81 CALM      30.01R
WORLAND        MOSUNNY   33  29  85 S10       29.99F WCI  25
SHERIDAN       PTSUNNY   54  26  34 VRB6      29.87F
BUFFALO        PTSUNNY   50  26  39 S6        29.92S
GILLETTE       MOSUNNY   47  31  53 SW21      29.90F
HULETT           N/A    N/A N/A N/A MISG        N/A
NEWCASTLE      FAIR      41  32  70 CALM      29.97S

$$
WYZ014>020-022>026-101>103-272200-
CENTRAL WYOMING

CITY           SKY/WX    TMP DP  RH WIND       PRES   REMARKS
BIG PINEY      MOSUNNY  N/A N/A N/A SE10      30.25S
PINEDALE       CLOUDY    41  28  60 CALM      30.26F
DUBOIS         FAIR      43  27  52 W23G37    30.14S
LANDER         PTSUNNY   54  24  31 NW9       30.03F
RIVERTON       MOSUNNY   53  27  36 E6        30.07S
CASPER         MOSUNNY   52  26  36 SW23      30.05F
DOUGLAS        MOSUNNY   58  24  27 W28G46    29.99F

$$
WYZ021-027>030-104>119-272200-
SOUTHERN WYOMING

CITY           SKY/WX    TMP DP  RH WIND       PRES   REMARKS
EVANSTON       PTSUNNY   52  24  33 SW13      30.29F
FORT BRIDGER   FAIR      54  25  32 W14G22    30.29F
ROCK SPRINGS   PTSUNNY   48  23  37 W9        30.25F
DIXON          FAIR      48  24  38 SW13G22   30.28F
RAWLINS        CLOUDY    49  21  33 W23G41    30.20F
SARATOGA       MOCLDY    52  21  30 W16G22    30.25S
LARAMIE        CLOUDY    48  21  34 W29G37    30.17F
CHEYENNE       PTSUNNY   56  22  26 W21G31    30.10F
TORRINGTON     PTSUNNY   60  25  26 W23G30    29.98F
PINE BLUFFS    FAIR      54  28  37 W9        30.07F

$$


USA.gov is the U.S. government's official web portal to all federal, state and local government web resources and services.